Year,Month,Day,Hour,Minute,Value (Times are PST for windgust in km/hr)
2014,02,14,00,00,11.30
2014,02,14,00,01,8.10
2014,02,14,00,02,11.30
2014,02,14,00,03,9.60
2014,02,14,00,04,6.40
2014,02,14,00,05,4.80
2014,02,14,00,06,4.80
2014,02,14,00,07,4.80
2014,02,14,00,08,4.80
2014,02,14,00,09,4.80
2014,02,14,00,10,4.80
2014,02,14,00,11,4.80
2014,02,14,00,12,3.20
2014,02,14,00,13,6.40
2014,02,14,00,14,8.10
2014,02,14,00,15,6.40
2014,02,14,00,16,3.20
2014,02,14,00,17,1.60
2014,02,14,00,18,8.10
2014,02,14,00,19,11.30
2014,02,14,00,20,3.20
2014,02,14,00,21,6.40
2014,02,14,00,22,4.80
2014,02,14,00,23,4.80
2014,02,14,00,24,1.60
2014,02,14,00,25,1.60
2014,02,14,00,27,3.20
2014,02,14,00,28,4.80
2014,02,14,00,29,9.60
2014,02,14,00,30,6.40
2014,02,14,00,31,4.80
2014,02,14,00,32,4.80
2014,02,14,00,33,3.20
2014,02,14,00,34,4.80
2014,02,14,00,35,4.80
2014,02,14,00,36,4.80
2014,02,14,00,37,8.10
2014,02,14,00,38,17.70
2014,02,14,00,39,20.90
2014,02,14,00,40,11.30
2014,02,14,00,41,14.50
2014,02,14,00,42,17.70
2014,02,14,00,43,14.50
2014,02,14,00,44,9.60
2014,02,14,00,45,11.30
2014,02,14,00,46,6.40
2014,02,14,00,47,4.80
2014,02,14,00,48,6.40
2014,02,14,00,49,16.10
2014,02,14,00,50,14.50
2014,02,14,00,51,4.80
2014,02,14,00,52,8.10
2014,02,14,00,53,11.30
2014,02,14,00,54,11.30
2014,02,14,00,55,3.20
2014,02,14,00,56,4.80
2014,02,14,00,57,6.40
2014,02,14,00,58,3.20
2014,02,14,00,59,6.40
2014,02,14,01,00,4.80
2014,02,14,01,01,3.20
2014,02,14,01,02,6.40
2014,02,14,01,03,4.80
2014,02,14,01,04,8.10
2014,02,14,01,05,8.10
2014,02,14,01,06,1.60
2014,02,14,01,07,1.60
2014,02,14,01,10,3.20
2014,02,14,01,11,4.80
2014,02,14,01,12,3.20
2014,02,14,01,15,3.20
2014,02,14,01,16,8.10
2014,02,14,01,17,6.40
2014,02,14,01,18,9.60
2014,02,14,01,19,1.60
2014,02,14,01,20,3.20
2014,02,14,01,21,3.20
2014,02,14,01,22,1.60
2014,02,14,01,23,1.60
2014,02,14,01,24,1.60
2014,02,14,01,25,3.20
2014,02,14,01,27,3.20
2014,02,14,01,29,3.20
2014,02,14,01,30,8.10
2014,02,14,01,31,4.80
2014,02,14,01,32,8.10
2014,02,14,01,33,8.10
2014,02,14,01,34,3.20
2014,02,14,01,35,8.10
2014,02,14,01,36,8.10
2014,02,14,01,37,4.80
2014,02,14,01,38,6.40
2014,02,14,01,39,4.80
2014,02,14,01,40,14.50
2014,02,14,01,41,9.60
2014,02,14,01,42,6.40
2014,02,14,01,43,16.10
2014,02,14,01,44,11.30
2014,02,14,01,45,17.70
2014,02,14,01,46,17.70
2014,02,14,01,47,8.10
2014,02,14,01,48,8.10
2014,02,14,01,49,9.60
2014,02,14,01,50,11.30
2014,02,14,01,51,11.30
2014,02,14,01,52,16.10
2014,02,14,01,53,8.10
2014,02,14,01,54,6.40
2014,02,14,01,55,9.60
2014,02,14,01,56,11.30
2014,02,14,01,57,11.30
2014,02,14,01,58,11.30
2014,02,14,01,59,19.30
2014,02,14,02,00,14.50
2014,02,14,02,01,6.40
2014,02,14,02,02,9.60
2014,02,14,02,03,6.40
2014,02,14,02,04,16.10
2014,02,14,02,05,27.40
2014,02,14,02,06,14.50
2014,02,14,02,07,8.10
2014,02,14,02,08,11.30
2014,02,14,02,09,14.50
2014,02,14,02,10,20.90
2014,02,14,02,11,17.70
2014,02,14,02,12,9.60
2014,02,14,02,13,9.60
2014,02,14,02,14,11.30
2014,02,14,02,15,8.10
2014,02,14,02,16,25.70
2014,02,14,02,17,14.50
2014,02,14,02,18,24.20
2014,02,14,02,19,12.90
2014,02,14,02,20,20.90
2014,02,14,02,21,19.30
2014,02,14,02,22,19.30
2014,02,14,02,23,19.30
2014,02,14,02,24,14.50
2014,02,14,02,25,9.60
2014,02,14,02,26,22.50
2014,02,14,02,27,24.20
2014,02,14,02,28,24.20
2014,02,14,02,29,16.10
2014,02,14,02,30,9.60
2014,02,14,02,31,19.30
2014,02,14,02,32,29.00
2014,02,14,02,33,20.90
2014,02,14,02,34,43.50
2014,02,14,02,35,35.40
2014,02,14,02,36,25.70
2014,02,14,02,37,19.30
2014,02,14,02,38,14.50
2014,02,14,02,39,20.90
2014,02,14,02,40,24.20
2014,02,14,02,41,17.70
2014,02,14,02,42,11.30
2014,02,14,02,43,20.90
2014,02,14,02,44,20.90
2014,02,14,02,45,9.60
2014,02,14,02,46,16.10
2014,02,14,02,47,25.70
2014,02,14,02,48,37.00
2014,02,14,02,49,30.60
2014,02,14,02,50,25.70
2014,02,14,02,51,20.90
2014,02,14,02,52,30.60
2014,02,14,02,53,29.00
2014,02,14,02,54,24.20
2014,02,14,02,55,22.50
2014,02,14,02,56,27.40
2014,02,14,02,57,16.10
2014,02,14,02,58,16.10
2014,02,14,02,59,12.90
2014,02,14,03,00,9.60
2014,02,14,03,01,6.40
2014,02,14,03,02,4.80
2014,02,14,03,03,11.30
2014,02,14,03,04,16.10
2014,02,14,03,05,14.50
2014,02,14,03,06,3.20
2014,02,14,03,07,8.10
2014,02,14,03,08,6.40
2014,02,14,03,09,6.40
2014,02,14,03,10,8.10
2014,02,14,03,11,19.30
2014,02,14,03,12,8.10
2014,02,14,03,13,9.60
2014,02,14,03,14,11.30
2014,02,14,03,15,8.10
2014,02,14,03,16,4.80
2014,02,14,03,17,16.10
2014,02,14,03,18,11.30
2014,02,14,03,19,20.90
2014,02,14,03,20,14.50
2014,02,14,03,21,6.40
2014,02,14,03,22,14.50
2014,02,14,03,23,14.50
2014,02,14,03,24,8.10
2014,02,14,03,25,16.10
2014,02,14,03,26,14.50
2014,02,14,03,27,17.70
2014,02,14,03,28,9.60
2014,02,14,03,29,11.30
2014,02,14,03,30,19.30
2014,02,14,03,31,24.20
2014,02,14,03,32,35.40
2014,02,14,03,33,29.00
2014,02,14,03,34,27.40
2014,02,14,03,35,22.50
2014,02,14,03,36,17.70
2014,02,14,03,37,11.30
2014,02,14,03,38,9.60
2014,02,14,03,39,8.10
2014,02,14,03,40,4.80
2014,02,14,03,41,4.80
2014,02,14,03,42,6.40
2014,02,14,03,43,11.30
2014,02,14,03,44,16.10
2014,02,14,03,45,8.10
2014,02,14,03,46,6.40
2014,02,14,03,47,17.70
2014,02,14,03,48,11.30
2014,02,14,03,49,11.30
2014,02,14,03,50,25.70
2014,02,14,03,51,19.30
2014,02,14,03,52,9.60
2014,02,14,03,53,19.30
2014,02,14,03,54,30.60
2014,02,14,03,55,25.70
2014,02,14,03,56,22.50
2014,02,14,03,57,27.40
2014,02,14,03,58,19.30
2014,02,14,03,59,16.10
2014,02,14,04,00,9.60
2014,02,14,04,01,12.90
2014,02,14,04,02,17.70
2014,02,14,04,03,24.20
2014,02,14,04,04,17.70
2014,02,14,04,05,9.60
2014,02,14,04,06,17.70
2014,02,14,04,07,14.50
2014,02,14,04,08,17.70
2014,02,14,04,09,20.90
2014,02,14,04,10,16.10
2014,02,14,04,11,4.80
2014,02,14,04,12,11.30
2014,02,14,04,13,17.70
2014,02,14,04,14,19.30
2014,02,14,04,15,11.30
2014,02,14,04,16,17.70
2014,02,14,04,17,22.50
2014,02,14,04,18,16.10
2014,02,14,04,19,16.10
2014,02,14,04,20,12.90
2014,02,14,04,21,19.30
2014,02,14,04,22,19.30
2014,02,14,04,23,14.50
2014,02,14,04,24,16.10
2014,02,14,04,25,8.10
2014,02,14,04,26,8.10
2014,02,14,04,27,14.50
2014,02,14,04,28,16.10
2014,02,14,04,29,12.90
2014,02,14,04,30,24.20
2014,02,14,04,31,25.70
2014,02,14,04,32,22.50
2014,02,14,04,33,19.30
2014,02,14,04,34,30.60
2014,02,14,04,35,30.60
2014,02,14,04,36,27.40
2014,02,14,04,37,6.40
2014,02,14,04,38,17.70
2014,02,14,04,39,20.90
2014,02,14,04,40,12.90
2014,02,14,04,41,24.20
2014,02,14,04,42,24.20
2014,02,14,04,43,17.70
2014,02,14,04,44,17.70
2014,02,14,04,45,17.70
2014,02,14,04,46,22.50
2014,02,14,04,47,29.00
2014,02,14,04,48,20.90
2014,02,14,04,49,8.10
2014,02,14,04,50,9.60
2014,02,14,04,51,20.90
2014,02,14,04,52,24.20
2014,02,14,04,53,20.90
2014,02,14,04,54,16.10
2014,02,14,04,55,9.60
2014,02,14,04,56,19.30
2014,02,14,04,57,14.50
2014,02,14,04,58,4.80
2014,02,14,04,59,4.80
2014,02,14,05,00,6.40
2014,02,14,05,01,14.50
2014,02,14,05,02,29.00
2014,02,14,05,03,20.90
2014,02,14,05,04,16.10
2014,02,14,05,05,27.40
2014,02,14,05,06,22.50
2014,02,14,05,07,17.70
2014,02,14,05,08,17.70
2014,02,14,05,09,3.20
2014,02,14,05,10,17.70
2014,02,14,05,11,16.10
2014,02,14,05,12,14.50
2014,02,14,05,13,9.60
2014,02,14,05,14,9.60
2014,02,14,05,15,4.80
2014,02,14,05,16,4.80
2014,02,14,05,17,3.20
2014,02,14,05,18,3.20
2014,02,14,05,19,4.80
2014,02,14,05,20,6.40
2014,02,14,05,21,6.40
2014,02,14,05,22,4.80
2014,02,14,05,23,4.80
2014,02,14,05,24,3.20
2014,02,14,05,25,3.20
2014,02,14,05,26,4.80
2014,02,14,05,27,4.80
2014,02,14,05,29,3.20
2014,02,14,05,30,3.20
2014,02,14,05,31,1.60
2014,02,14,05,32,8.10
2014,02,14,05,33,8.10
2014,02,14,05,34,4.80
2014,02,14,05,35,6.40
2014,02,14,05,36,4.80
2014,02,14,05,37,3.20
2014,02,14,05,38,4.80
2014,02,14,05,39,3.20
2014,02,14,05,40,9.60
2014,02,14,05,41,8.10
2014,02,14,05,42,3.20
2014,02,14,05,43,4.80
2014,02,14,05,44,9.60
2014,02,14,05,45,8.10
2014,02,14,05,46,8.10
2014,02,14,05,47,4.80
2014,02,14,05,48,4.80
2014,02,14,05,49,6.40
2014,02,14,05,50,6.40
2014,02,14,05,51,8.10
2014,02,14,05,52,9.60
2014,02,14,05,53,9.60
2014,02,14,05,54,11.30
2014,02,14,05,55,9.60
2014,02,14,05,56,11.30
2014,02,14,05,57,11.30
2014,02,14,05,58,12.90
2014,02,14,05,59,9.60
2014,02,14,06,00,12.90
2014,02,14,06,01,9.60
2014,02,14,06,02,14.50
2014,02,14,06,03,9.60
2014,02,14,06,04,4.80
2014,02,14,06,05,4.80
2014,02,14,06,06,4.80
2014,02,14,06,07,3.20
2014,02,14,06,08,4.80
2014,02,14,06,09,8.10
2014,02,14,06,10,6.40
2014,02,14,06,11,6.40
2014,02,14,06,12,4.80
2014,02,14,06,13,4.80
2014,02,14,06,14,3.20
2014,02,14,06,15,1.60
2014,02,14,06,16,1.60
2014,02,14,06,18,3.20
2014,02,14,06,19,1.60
2014,02,14,06,20,1.60
2014,02,14,06,21,1.60
2014,02,14,06,22,1.60
2014,02,14,06,23,1.60
2014,02,14,06,24,3.20
2014,02,14,06,25,3.20
2014,02,14,06,26,8.10
2014,02,14,06,27,4.80
2014,02,14,06,28,1.60
2014,02,14,06,29,1.60
2014,02,14,06,30,1.60
2014,02,14,06,31,1.60
2014,02,14,06,32,1.60
2014,02,14,06,33,1.60
2014,02,14,06,34,1.60
2014,02,14,06,35,1.60
2014,02,14,06,36,1.60
2014,02,14,06,37,1.60
2014,02,14,06,39,3.20
2014,02,14,06,41,1.60
2014,02,14,06,43,1.60
2014,02,14,06,44,1.60
2014,02,14,06,45,1.60
2014,02,14,06,46,9.60
2014,02,14,06,47,4.80
2014,02,14,06,48,4.80
2014,02,14,06,49,9.60
2014,02,14,06,50,4.80
2014,02,14,06,51,1.60
2014,02,14,06,52,4.80
2014,02,14,06,53,6.40
2014,02,14,06,54,3.20
2014,02,14,06,55,9.60
2014,02,14,06,56,8.10
2014,02,14,06,57,14.50
2014,02,14,06,58,4.80
2014,02,14,06,59,4.80
2014,02,14,07,00,4.80
2014,02,14,07,01,9.60
2014,02,14,07,02,11.30
2014,02,14,07,03,4.80
2014,02,14,07,04,4.80
2014,02,14,07,05,6.40
2014,02,14,07,06,3.20
2014,02,14,07,07,4.80
2014,02,14,07,08,8.10
2014,02,14,07,09,11.30
2014,02,14,07,10,4.80
2014,02,14,07,11,1.60
2014,02,14,07,12,3.20
2014,02,14,07,13,3.20
2014,02,14,07,14,3.20
2014,02,14,07,15,6.40
2014,02,14,07,16,20.90
2014,02,14,07,17,9.60
2014,02,14,07,18,3.20
2014,02,14,07,19,3.20
2014,02,14,07,20,11.30
2014,02,14,07,21,14.50
2014,02,14,07,22,11.30
2014,02,14,07,23,6.40
2014,02,14,07,24,16.10
2014,02,14,07,25,20.90
2014,02,14,07,26,14.50
2014,02,14,07,27,8.10
2014,02,14,07,28,11.30
2014,02,14,07,29,9.60
2014,02,14,07,30,11.30
2014,02,14,07,31,9.60
2014,02,14,07,32,6.40
2014,02,14,07,33,9.60
2014,02,14,07,34,11.30
2014,02,14,07,35,17.70
2014,02,14,07,36,11.30
2014,02,14,07,37,8.10
2014,02,14,07,38,9.60
2014,02,14,07,39,6.40
2014,02,14,07,40,8.10
2014,02,14,07,41,4.80
2014,02,14,07,42,9.60
2014,02,14,07,43,9.60
2014,02,14,07,44,8.10
2014,02,14,07,45,14.50
2014,02,14,07,46,17.70
2014,02,14,07,47,14.50
2014,02,14,07,48,6.40
2014,02,14,07,49,6.40
2014,02,14,07,50,6.40
2014,02,14,07,51,16.10
2014,02,14,07,52,11.30
2014,02,14,07,53,9.60
2014,02,14,07,54,6.40
2014,02,14,07,55,3.20
2014,02,14,07,56,12.90
2014,02,14,07,57,8.10
2014,02,14,07,58,9.60
2014,02,14,07,59,16.10
2014,02,14,08,00,17.70
2014,02,14,08,01,16.10
2014,02,14,08,02,9.60
2014,02,14,08,03,11.30
2014,02,14,08,04,6.40
2014,02,14,08,05,9.60
2014,02,14,08,06,6.40
2014,02,14,08,07,8.10
2014,02,14,08,08,9.60
2014,02,14,08,09,8.10
2014,02,14,08,10,8.10
2014,02,14,08,11,20.90
2014,02,14,08,12,14.50
2014,02,14,08,13,8.10
2014,02,14,08,14,14.50
2014,02,14,08,15,6.40
2014,02,14,08,16,9.60
2014,02,14,08,17,6.40
2014,02,14,08,18,24.20
2014,02,14,08,19,17.70
2014,02,14,08,20,8.10
2014,02,14,08,21,9.60
2014,02,14,08,22,9.60
2014,02,14,08,23,8.10
2014,02,14,08,24,9.60
2014,02,14,08,25,11.30
2014,02,14,08,26,16.10
2014,02,14,08,27,11.30
2014,02,14,08,28,16.10
2014,02,14,08,29,20.90
2014,02,14,08,30,14.50
2014,02,14,08,31,19.30
2014,02,14,08,32,17.70
2014,02,14,08,33,14.50
2014,02,14,08,34,22.50
2014,02,14,08,35,14.50
2014,02,14,08,36,24.20
2014,02,14,08,37,9.60
2014,02,14,08,38,11.30
2014,02,14,08,39,16.10
2014,02,14,08,40,6.40
2014,02,14,08,41,14.50
2014,02,14,08,42,9.60
2014,02,14,08,43,9.60
2014,02,14,08,44,6.40
2014,02,14,08,45,9.60
2014,02,14,08,46,9.60
2014,02,14,08,47,16.10
2014,02,14,08,48,11.30
2014,02,14,08,49,9.60
2014,02,14,08,50,6.40
2014,02,14,08,51,8.10
2014,02,14,08,52,9.60
2014,02,14,08,53,8.10
2014,02,14,08,54,8.10
2014,02,14,08,55,9.60
2014,02,14,08,56,6.40
2014,02,14,08,57,8.10
2014,02,14,08,58,14.50
2014,02,14,08,59,11.30
2014,02,14,09,00,11.30
2014,02,14,09,01,9.60
2014,02,14,09,02,6.40
2014,02,14,09,03,6.40
2014,02,14,09,04,9.60
2014,02,14,09,05,9.60
2014,02,14,09,06,24.20
2014,02,14,09,07,14.50
2014,02,14,09,08,14.50
2014,02,14,09,09,8.10
2014,02,14,09,10,8.10
2014,02,14,09,11,9.60
2014,02,14,09,12,8.10
2014,02,14,09,13,17.70
2014,02,14,09,14,20.90
2014,02,14,09,15,8.10
2014,02,14,09,16,19.30
2014,02,14,09,17,11.30
2014,02,14,09,18,11.30
2014,02,14,09,19,16.10
2014,02,14,09,20,9.60
2014,02,14,09,21,17.70
2014,02,14,09,22,11.30
2014,02,14,09,23,17.70
2014,02,14,09,24,14.50
2014,02,14,09,25,14.50
2014,02,14,09,26,16.10
2014,02,14,09,27,11.30
2014,02,14,09,28,20.90
2014,02,14,09,29,22.50
2014,02,14,09,30,20.90
2014,02,14,09,31,19.30
2014,02,14,09,32,20.90
2014,02,14,09,33,9.60
2014,02,14,09,34,22.50
2014,02,14,09,35,25.70
2014,02,14,09,36,20.90
2014,02,14,09,37,22.50
2014,02,14,09,38,25.70
2014,02,14,09,39,16.10
2014,02,14,09,40,19.30
2014,02,14,09,41,12.90
2014,02,14,09,42,37.00
2014,02,14,09,43,17.70
2014,02,14,09,44,24.20
2014,02,14,09,45,20.90
2014,02,14,09,46,17.70
2014,02,14,09,47,22.50
2014,02,14,09,48,20.90
2014,02,14,09,49,22.50
2014,02,14,09,50,12.90
2014,02,14,09,51,17.70
2014,02,14,09,52,29.00
2014,02,14,09,53,20.90
2014,02,14,09,54,16.10
2014,02,14,09,55,27.40
2014,02,14,09,56,25.70
2014,02,14,09,57,29.00
2014,02,14,09,58,17.70
2014,02,14,09,59,24.20
2014,02,14,10,00,30.60
2014,02,14,10,01,17.70
2014,02,14,10,02,19.30
2014,02,14,10,03,17.70
2014,02,14,10,04,20.90
2014,02,14,10,05,20.90
2014,02,14,10,06,22.50
2014,02,14,10,07,20.90
2014,02,14,10,08,8.10
2014,02,14,10,09,24.20
2014,02,14,10,10,30.60
2014,02,14,10,11,11.30
2014,02,14,10,12,17.70
2014,02,14,10,13,27.40
2014,02,14,10,14,17.70
2014,02,14,10,15,22.50
2014,02,14,10,16,20.90
2014,02,14,10,17,20.90
2014,02,14,10,18,22.50
2014,02,14,10,19,17.70
2014,02,14,10,20,16.10
2014,02,14,10,21,29.00
2014,02,14,10,22,16.10
2014,02,14,10,23,19.30
2014,02,14,10,24,24.20
2014,02,14,10,25,16.10
2014,02,14,10,26,27.40
2014,02,14,10,27,25.70
2014,02,14,10,28,22.50
2014,02,14,10,29,27.40
2014,02,14,10,30,17.70
2014,02,14,10,31,29.00
2014,02,14,10,32,17.70
2014,02,14,10,33,14.50
2014,02,14,10,34,17.70
2014,02,14,10,35,16.10
2014,02,14,10,36,17.70
2014,02,14,10,37,17.70
2014,02,14,10,38,20.90
2014,02,14,10,39,30.60
2014,02,14,10,40,25.70
2014,02,14,10,41,25.70
2014,02,14,10,42,24.20
2014,02,14,10,43,11.30
2014,02,14,10,44,20.90
2014,02,14,10,45,24.20
2014,02,14,10,46,14.50
2014,02,14,10,47,19.30
2014,02,14,10,48,16.10
2014,02,14,10,49,17.70
2014,02,14,10,50,17.70
2014,02,14,10,51,22.50
2014,02,14,10,52,16.10
2014,02,14,10,53,24.20
2014,02,14,10,54,9.60
2014,02,14,10,55,20.90
2014,02,14,10,56,14.50
2014,02,14,10,57,24.20
2014,02,14,10,58,12.90
2014,02,14,10,59,25.70
2014,02,14,11,00,16.10
2014,02,14,11,01,16.10
2014,02,14,11,02,11.30
2014,02,14,11,03,19.30
2014,02,14,11,04,17.70
2014,02,14,11,05,9.60
2014,02,14,11,06,16.10
2014,02,14,11,07,9.60
2014,02,14,11,08,4.80
2014,02,14,11,09,16.10
2014,02,14,11,10,17.70
2014,02,14,11,11,25.70
2014,02,14,11,12,22.50
2014,02,14,11,13,19.30
2014,02,14,11,14,29.00
2014,02,14,11,15,17.70
2014,02,14,11,16,24.20
2014,02,14,11,17,17.70
2014,02,14,11,18,24.20
2014,02,14,11,19,22.50
2014,02,14,11,20,16.10
2014,02,14,11,21,24.20
2014,02,14,11,22,17.70
2014,02,14,11,23,24.20
2014,02,14,11,24,25.70
2014,02,14,11,25,30.60
2014,02,14,11,26,16.10
2014,02,14,11,27,29.00
2014,02,14,11,28,30.60
2014,02,14,11,29,24.20
2014,02,14,11,30,16.10
2014,02,14,11,31,22.50
2014,02,14,11,32,30.60
2014,02,14,11,33,16.10
2014,02,14,11,34,11.30
2014,02,14,11,35,17.70
2014,02,14,11,36,20.90
2014,02,14,11,37,17.70
2014,02,14,11,38,25.70
2014,02,14,11,39,19.30
2014,02,14,11,40,24.20
2014,02,14,11,41,27.40
2014,02,14,11,42,32.20
2014,02,14,11,43,25.70
2014,02,14,11,44,14.50
2014,02,14,11,45,22.50
2014,02,14,11,46,27.40
2014,02,14,11,47,32.20
2014,02,14,11,48,27.40
2014,02,14,11,49,20.90
2014,02,14,11,50,27.40
2014,02,14,11,51,22.50
2014,02,14,11,52,20.90
2014,02,14,11,53,20.90
2014,02,14,11,54,29.00
2014,02,14,11,55,27.40
2014,02,14,11,56,24.20
2014,02,14,11,57,32.20
2014,02,14,11,58,24.20
2014,02,14,11,59,24.20
2014,02,14,12,00,24.20
2014,02,14,12,01,29.00
2014,02,14,12,02,19.30
2014,02,14,12,03,24.20
2014,02,14,12,04,17.70
2014,02,14,12,05,24.20
2014,02,14,12,06,25.70
2014,02,14,12,07,20.90
2014,02,14,12,08,19.30
2014,02,14,12,09,22.50
2014,02,14,12,10,25.70
2014,02,14,12,11,17.70
2014,02,14,12,12,20.90
2014,02,14,12,13,32.20
2014,02,14,12,14,22.50
2014,02,14,12,15,11.30
2014,02,14,12,16,19.30
2014,02,14,12,17,24.20
2014,02,14,12,18,32.20
2014,02,14,12,19,24.20
2014,02,14,12,20,16.10
2014,02,14,12,21,20.90
2014,02,14,12,22,27.40
2014,02,14,12,23,24.20
2014,02,14,12,24,22.50
2014,02,14,12,25,29.00
2014,02,14,12,26,19.30
2014,02,14,12,27,17.70
2014,02,14,12,28,17.70
2014,02,14,12,29,20.90
2014,02,14,12,30,19.30
2014,02,14,12,31,22.50
2014,02,14,12,32,20.90
2014,02,14,12,33,25.70
2014,02,14,12,34,24.20
2014,02,14,12,35,24.20
2014,02,14,12,36,20.90
2014,02,14,12,37,20.90
2014,02,14,12,38,29.00
2014,02,14,12,39,37.00
2014,02,14,12,40,25.70
2014,02,14,12,41,9.60
2014,02,14,12,42,20.90
2014,02,14,12,43,25.70
2014,02,14,12,44,17.70
2014,02,14,12,45,24.20
2014,02,14,12,46,6.40
2014,02,14,12,47,11.30
2014,02,14,12,48,22.50
2014,02,14,12,49,22.50
2014,02,14,12,50,19.30
2014,02,14,12,51,24.20
2014,02,14,12,52,38.60
2014,02,14,12,53,22.50
2014,02,14,12,54,30.60
2014,02,14,12,55,29.00
2014,02,14,12,56,17.70
2014,02,14,12,57,24.20
2014,02,14,12,58,19.30
2014,02,14,12,59,25.70
2014,02,14,13,00,30.60
2014,02,14,13,01,19.30
2014,02,14,13,02,22.50
2014,02,14,13,03,22.50
2014,02,14,13,04,16.10
2014,02,14,13,05,14.50
2014,02,14,13,06,30.60
2014,02,14,13,07,19.30
2014,02,14,13,08,14.50
2014,02,14,13,09,19.30
2014,02,14,13,10,12.90
2014,02,14,13,11,11.30
2014,02,14,13,12,9.60
2014,02,14,13,13,11.30
2014,02,14,13,14,16.10
2014,02,14,13,15,17.70
2014,02,14,13,16,17.70
2014,02,14,13,17,20.90
2014,02,14,13,18,29.00
2014,02,14,13,19,30.60
2014,02,14,13,20,24.20
2014,02,14,13,21,24.20
2014,02,14,13,22,17.70
2014,02,14,13,23,11.30
2014,02,14,13,24,16.10
2014,02,14,13,25,9.60
2014,02,14,13,26,11.30
2014,02,14,13,27,11.30
2014,02,14,13,28,16.10
2014,02,14,13,29,16.10
2014,02,14,13,30,22.50
2014,02,14,13,31,20.90
2014,02,14,13,32,22.50
2014,02,14,13,33,17.70
2014,02,14,13,34,16.10
2014,02,14,13,35,17.70
2014,02,14,13,36,17.70
2014,02,14,13,37,14.50
2014,02,14,13,38,16.10
2014,02,14,13,39,29.00
2014,02,14,13,40,17.70
2014,02,14,13,41,22.50
2014,02,14,13,42,11.30
2014,02,14,13,43,33.80
2014,02,14,13,44,27.40
2014,02,14,13,45,14.50
2014,02,14,13,46,16.10
2014,02,14,13,47,20.90
2014,02,14,13,48,16.10
2014,02,14,13,49,17.70
2014,02,14,13,50,22.50
2014,02,14,13,51,20.90
2014,02,14,13,52,20.90
2014,02,14,13,53,24.20
2014,02,14,13,54,46.70
2014,02,14,13,55,19.30
2014,02,14,13,56,16.10
2014,02,14,13,57,27.40
2014,02,14,13,58,30.60
2014,02,14,13,59,20.90
2014,02,14,14,00,11.30
2014,02,14,14,01,11.30
2014,02,14,14,02,20.90
2014,02,14,14,03,22.50
2014,02,14,14,04,24.20
2014,02,14,14,05,25.70
2014,02,14,14,06,17.70
2014,02,14,14,07,24.20
2014,02,14,14,08,22.50
2014,02,14,14,09,30.60
2014,02,14,14,10,17.70
2014,02,14,14,11,22.50
2014,02,14,14,12,17.70
2014,02,14,14,13,24.20
2014,02,14,14,14,24.20
2014,02,14,14,15,30.60
2014,02,14,14,16,35.40
2014,02,14,14,17,25.70
2014,02,14,14,18,25.70
2014,02,14,14,19,16.10
2014,02,14,14,20,20.90
2014,02,14,14,21,22.50
2014,02,14,14,22,25.70
2014,02,14,14,23,24.20
2014,02,14,14,24,27.40
2014,02,14,14,25,20.90
2014,02,14,14,26,24.20
2014,02,14,14,27,27.40
2014,02,14,14,28,27.40
2014,02,14,14,29,24.20
2014,02,14,14,30,19.30
2014,02,14,14,31,14.50
2014,02,14,14,32,17.70
2014,02,14,14,33,16.10
2014,02,14,14,34,9.60
2014,02,14,14,35,17.70
2014,02,14,14,36,25.70
2014,02,14,14,37,11.30
2014,02,14,14,38,11.30
2014,02,14,14,39,19.30
2014,02,14,14,40,19.30
2014,02,14,14,41,8.10
2014,02,14,14,42,11.30
2014,02,14,14,43,8.10
2014,02,14,14,44,14.50
2014,02,14,14,45,11.30
2014,02,14,14,46,8.10
2014,02,14,14,47,17.70
2014,02,14,14,48,17.70
2014,02,14,14,49,24.20
2014,02,14,14,50,22.50
2014,02,14,14,51,16.10
2014,02,14,14,52,19.30
2014,02,14,14,53,16.10
2014,02,14,14,54,9.60
2014,02,14,14,55,11.30
2014,02,14,14,56,16.10
2014,02,14,14,57,16.10
2014,02,14,14,58,12.90
2014,02,14,14,59,4.80
2014,02,14,15,00,14.50
2014,02,14,15,01,20.90
2014,02,14,15,02,29.00
2014,02,14,15,03,29.00
2014,02,14,15,04,11.30
2014,02,14,15,05,11.30
2014,02,14,15,06,14.50
2014,02,14,15,07,17.70
2014,02,14,15,08,14.50
2014,02,14,15,09,16.10
2014,02,14,15,10,17.70
2014,02,14,15,11,25.70
2014,02,14,15,12,20.90
2014,02,14,15,13,29.00
2014,02,14,15,14,22.50
2014,02,14,15,15,20.90
2014,02,14,15,16,11.30
2014,02,14,15,17,9.60
2014,02,14,15,18,20.90
2014,02,14,15,19,24.20
2014,02,14,15,20,25.70
2014,02,14,15,21,25.70
2014,02,14,15,22,20.90
2014,02,14,15,23,14.50
2014,02,14,15,24,22.50
2014,02,14,15,25,25.70
2014,02,14,15,26,19.30
2014,02,14,15,27,17.70
2014,02,14,15,28,17.70
2014,02,14,15,29,20.90
2014,02,14,15,30,16.10
2014,02,14,15,31,22.50
2014,02,14,15,32,17.70
2014,02,14,15,33,14.50
2014,02,14,15,34,33.80
2014,02,14,15,35,20.90
2014,02,14,15,36,14.50
2014,02,14,15,37,24.20
2014,02,14,15,38,17.70
2014,02,14,15,39,14.50
2014,02,14,15,40,8.10
2014,02,14,15,41,16.10
2014,02,14,15,42,22.50
2014,02,14,15,43,17.70
2014,02,14,15,44,11.30
2014,02,14,15,45,11.30
2014,02,14,15,46,9.60
2014,02,14,15,47,12.90
2014,02,14,15,48,20.90
2014,02,14,15,49,19.30
2014,02,14,15,50,11.30
2014,02,14,15,51,17.70
2014,02,14,15,52,8.10
2014,02,14,15,53,8.10
2014,02,14,15,54,24.20
2014,02,14,15,55,16.10
2014,02,14,15,56,9.60
2014,02,14,15,57,29.00
2014,02,14,15,58,29.00
2014,02,14,15,59,17.70
2014,02,14,16,00,25.70
2014,02,14,16,01,24.20
2014,02,14,16,02,19.30
2014,02,14,16,03,25.70
2014,02,14,16,04,25.70
2014,02,14,16,05,22.50
2014,02,14,16,06,19.30
2014,02,14,16,07,9.60
2014,02,14,16,08,16.10
2014,02,14,16,09,17.70
2014,02,14,16,10,17.70
2014,02,14,16,11,14.50
2014,02,14,16,12,8.10
2014,02,14,16,13,17.70
2014,02,14,16,14,17.70
2014,02,14,16,15,19.30
2014,02,14,16,16,14.50
2014,02,14,16,17,14.50
2014,02,14,16,18,8.10
2014,02,14,16,19,11.30
2014,02,14,16,20,9.60
2014,02,14,16,21,8.10
2014,02,14,16,22,11.30
2014,02,14,16,23,22.50
2014,02,14,16,24,11.30
2014,02,14,16,25,16.10
2014,02,14,16,26,17.70
2014,02,14,16,27,20.90
2014,02,14,16,28,14.50
2014,02,14,16,29,19.30
2014,02,14,16,30,17.70
2014,02,14,16,31,27.40
2014,02,14,16,32,9.60
2014,02,14,16,33,17.70
2014,02,14,16,34,17.70
2014,02,14,16,35,22.50
2014,02,14,16,36,22.50
2014,02,14,16,37,17.70
2014,02,14,16,38,8.10
2014,02,14,16,39,17.70
2014,02,14,16,40,19.30
2014,02,14,16,41,8.10
2014,02,14,16,42,20.90
2014,02,14,16,43,9.60
2014,02,14,16,44,16.10
2014,02,14,16,45,19.30
2014,02,14,16,46,16.10
2014,02,14,16,47,16.10
2014,02,14,16,48,19.30
2014,02,14,16,49,25.70
2014,02,14,16,50,16.10
2014,02,14,16,51,17.70
2014,02,14,16,52,11.30
2014,02,14,16,53,11.30
2014,02,14,16,54,17.70
2014,02,14,16,55,16.10
2014,02,14,16,56,14.50
2014,02,14,16,57,11.30
2014,02,14,16,58,6.40
2014,02,14,16,59,8.10
2014,02,14,17,00,16.10
2014,02,14,17,01,9.60
2014,02,14,17,02,16.10
2014,02,14,17,03,19.30
2014,02,14,17,04,14.50
2014,02,14,17,05,8.10
2014,02,14,17,06,4.80
2014,02,14,17,07,4.80
2014,02,14,17,08,6.40
2014,02,14,17,09,11.30
2014,02,14,17,10,14.50
2014,02,14,17,11,3.20
2014,02,14,17,12,4.80
2014,02,14,17,13,11.30
2014,02,14,17,14,11.30
2014,02,14,17,15,8.10
2014,02,14,17,16,11.30
2014,02,14,17,17,16.10
2014,02,14,17,18,3.20
2014,02,14,17,19,4.80
2014,02,14,17,20,1.60
2014,02,14,17,21,3.20
2014,02,14,17,22,3.20
2014,02,14,17,23,4.80
2014,02,14,17,24,6.40
2014,02,14,17,25,17.70
2014,02,14,17,26,11.30
2014,02,14,17,27,11.30
2014,02,14,17,28,9.60
2014,02,14,17,29,9.60
2014,02,14,17,30,9.60
2014,02,14,17,31,8.10
2014,02,14,17,32,8.10
2014,02,14,17,33,11.30
2014,02,14,17,34,8.10
2014,02,14,17,35,6.40
2014,02,14,17,36,6.40
2014,02,14,17,37,6.40
2014,02,14,17,38,4.80
2014,02,14,17,39,4.80
2014,02,14,17,40,25.70
2014,02,14,17,41,17.70
2014,02,14,17,42,6.40
2014,02,14,17,43,6.40
2014,02,14,17,44,8.10
2014,02,14,17,45,9.60
2014,02,14,17,46,9.60
2014,02,14,17,47,6.40